Погода в Желехуве

Польша     51°48′40″N   21°53′51″E
темп.,
°C
ветер,
м/с
пор.,
м/с
влажн.,
%
обл.,
%
осадки,
мм/ч
давл.,
гПа
погр.,
м
27 февраля, сб
сб2701:00+4сз61180100 0.1 1025823
04:00+3зсз6128699 0.0 1024606
07:00+3зсз7119097 0.0 1026622
10:00+3сз71189100 0.0 1027568
13:00+4сз81180100 0.0 1028912
16:00+5сз71169100 0.1 10291013
19:00+3сз6137872 0.1 1031550
22:00+1сз511900 0.0 1032404
28 февраля, вс
вс2801:000сз510921 0.0 1033330
04:00−1зсз4108919 0.0 1032292
07:000зсз598259 0.0 1032302
10:00+4зсз6106548 0.0 1031473
13:00+7зсз7106855 0.0 1030830
16:00+5сз8117954 0.0 1029913
19:00+3сз6119070 0.0 1029508
22:00+3сз71190100 0.0 1030543
1 марта, пн
пн101:00+2сз4892100 0.0 1032424
04:00+1ссз369492 0.0 1032311
07:00+1сз349496 0.0 1033155
10:00+3сз3484100 0.0 1034401
13:00+8сз346783 0.0 1034742
16:00+8зсз457023 0.0 1033597
19:00+4з358612 0.0 1034100
22:00+3з47890 0.0 1033136
2 марта, вт
вт201:00+2з410900 0.0 1033204
04:00+1з5119314 0.0 1032255
07:00+1зсз5109528 0.0 1032270
10:00+5зсз477812 0.0 1032460
13:00+8зсз46666 0.0 1032594
16:00+8зсз46690 0.0 1031621
19:00+4зсз34870 0.0 103187
22:00+3зсз34900 0.0 103259
3 марта, ср
ср301:00+2з33930 0.0 103149
04:00+1з34940 0.0 103163
07:00+1зсз33950 0.0 103174
10:00+5зсз34783 0.0 1031436
13:00+8зсз346512 0.0 1030640
16:00+8зсз23650 0.0 1027529
19:00+4св00822 0.0 102722
22:00+4ююз228354 0.0 102622